Flag for Ireland Weather past 2 weeks in Dublin, Ireland

Now
66 °F

Scattered showers. Scattered clouds.


Feels Like: 66 °F
Forecast: 56 / 66 °F
Wind: 23 mph from Southwest

Location: Dublin Airport

Current Time: Aug 3, 2015 at 4:13:51 PM

Latest Report: Aug 3, 2015 at 3:30 PM


Visibility: N/A

Pressure: 29.62 "Hg

Humidity: 46%

Dew point: 45 °F

Location of DublinLocation

Historic Weather in Dublin — Graph

°F

Dublin temperature yesterday

Maximum temperature yesterday: 63 °F (at 5:00 PM)
Minimum temperature yesterday: 52 °F (at 3:00 AM)
Average temperature yesterday: 57 °F

Past Weeks' High & Low Weather Summary

 TemperatureHumidityPressure
High70 °F (Jul 20, 2:00 PM)100% (Jul 25, 1:30 AM)30.15 "Hg (Jul 25, 1:30 AM)
Low43 °F (Jul 25, 3:00 AM)43% (Aug 1, 3:30 PM)29.30 "Hg (Jul 26, 5:00 PM)
Average56 °F79%29.82 "Hg
* Reported Jul 19 3:00 PM — Aug 3 3:00 PM, Dublin, Weather by CustomWeather, © 2015

Note: Actual official high and low records may vary slightly from our data, if they occured in-between our weather recording intervals... More about our weather records

Advertising

Dublin weather history for previous 24 hours

 ConditionsComfort  
Time TempWeatherWind HumidityBarometerVisibility
3:00 PM
Mon, Aug 3
66 °FScattered showers. Scattered clouds.26 mph49%29.62 "HgN/A
2:30 PM66 °FScattered showers. Scattered clouds.21 mph52%29.62 "HgN/A
2:00 PM64 °FBroken clouds.21 mph52%29.65 "HgN/A
1:30 PM64 °FBroken clouds.21 mph56%29.65 "HgN/A
1:00 PM64 °FPartly sunny.17 mph64%29.65 "HgN/A
12:30 PM63 °FPartly sunny.16 mph59%29.65 "HgN/A
12:00 PM64 °FPartly sunny.21 mph60%29.65 "HgN/A
11:30 AM63 °FPartly sunny.16 mph59%29.65 "HgN/A
11:00 AM63 °FScattered clouds.16 mph59%29.65 "HgN/A
10:30 AM63 °FScattered clouds.17 mph64%29.65 "HgN/A
10:00 AM61 °FScattered clouds.20 mph63%29.62 "HgN/A
9:30 AM61 °FScattered clouds.17 mph68%29.62 "HgN/A
9:00 AM59 °FPartly sunny.14 mph72%29.62 "HgN/A
8:30 AM59 °FPartly sunny.18 mph72%29.59 "HgN/A
8:00 AM59 °FPartly sunny.16 mph72%29.59 "HgN/A
7:30 AM57 °FPartly sunny.15 mph82%29.56 "HgN/A
7:00 AM57 °FScattered clouds.14 mph82%29.56 "HgN/A
6:30 AM59 °FPartly cloudy.17 mph82%29.53 "HgN/A
6:00 AM61 °FPartly cloudy.16 mph77%29.53 "HgN/A
5:30 AM61 °FPartly cloudy.13 mph83%29.53 "HgN/A
5:00 AM61 °FPartly cloudy.17 mph83%29.50 "HgN/A
4:30 AM61 °FPassing clouds.15 mph83%29.50 "HgN/A
4:00 AM61 °FLight rain. Partly cloudy.20 mph88%29.50 "HgN/A
3:30 AM61 °FLight rain. Partly cloudy.13 mph94%29.50 "HgN/A
3:00 AM61 °FLight rain. Partly cloudy.15 mph94%29.50 "HgN/A
2:30 AM61 °FPartly cloudy.15 mph88%29.53 "HgN/A
2:00 AM61 °FPartly cloudy.15 mph88%29.53 "HgN/A
1:30 AM61 °FPartly cloudy.12 mph88%29.53 "HgN/A
1:00 AM61 °FPartly cloudy.15 mph83%29.56 "HgN/A
12:30 AM61 °FPartly cloudy.16 mph83%29.56 "HgN/A
12:00 AM61 °FPartly cloudy.17 mph83%29.59 "HgN/A
11:30 PM
Sun, Aug 2
59 °FPartly cloudy.16 mph88%29.62 "HgN/A
11:00 PM59 °FLight rain. Partly cloudy.18 mph88%29.62 "HgN/A
10:30 PM57 °FPartly cloudy.18 mph88%29.62 "HgN/A
10:00 PM59 °FLight rain. Broken clouds.18 mph77%29.65 "HgN/A
9:30 PM61 °FLight rain. Partly sunny.16 mph72%29.65 "HgN/A
9:00 PM61 °FBroken clouds.15 mph77%29.65 "HgN/A
8:30 PM59 °FLight rain. Broken clouds.15 mph82%29.68 "HgN/A
8:00 PM59 °FBroken clouds.18 mph82%29.68 "HgN/A
7:30 PM61 °FBroken clouds.18 mph72%29.68 "HgN/A
7:00 PM61 °FBroken clouds.17 mph68%29.71 "HgN/A
6:30 PM61 °FBroken clouds.18 mph68%29.71 "HgN/A
6:00 PM61 °FBroken clouds.14 mph72%29.74 "HgN/A
5:30 PM61 °FBroken clouds.14 mph68%29.77 "HgN/A
5:00 PM63 °FBroken clouds.12 mph68%29.77 "HgN/A
4:30 PM61 °FBroken clouds.16 mph77%29.77 "HgN/A
4:00 PM59 °FBroken clouds.21 mph82%29.80 "HgN/A
Weather by CustomWeather, © 2015

See weather overviewHow to use our weather pages